05:20
Airports
History
Links
Donate
Help keep this website running!
PayPal
Bitcoin
This page is community maintained. The information is intended for PC simulator navigation or reference.
Always use approved charts for navigation.
SNEL
Belterra
Belterra (SNEL)
Belterra, Pará, Brazil (68143)
(C)
Lat/Lng:2° 40' 0" S / 54° 54' 0.99" W
-2.666667 / -54.900276
Elevation:538'ft / 164mMSL
ID / ICAO:SNEL
Runways:1
Longest:10-28
Concrete 1,996m / 6,547ft
Controlled:Yes
Nearby Weather05:00 GMT 2017-12-13
Nearby weather at SBSN, SANTAREM located 18.4 nautical miles from SNEL
Altimeter: 29.80
Visibility: 6.2 statute miles
Wind: 2 knots (from 210°)
Temp: 26°c / 79°f
Humidity: 94.2%

METAR: SBSN 130500Z 21002KT 9999 FEW015 SCT100 26/25 Q1009

(Powered by phpweather)
Runway 10 / 28
Dimensions:1995.6 x 28.7m 6547' x 94'ft
Surface:Concrete
Edge Lights:Medium intensity
Runway 10 [A]Runway 28 [B]
Heading:083°TH 263°TH
Lat:
Lng:
2° 40' 3.39"S
54° 54' 33.25"W
2° 39' 56.61"S
54° 53' 28.74"W
ALS:SALSSALS
User Notes and Comments
2° 40' 0" S / 54° 54' 0.99" W
Distance To
Airport ID:
Nearby Airports
4 Sao Jose 13.0 NM
SNSH ENE 63°
4 Piquiatuba 15.8 NM
SNCJ ENE 58°
(C) SANTAREM 18.4 NM
SBSN ( WX ) NNE 23°
(U) Alenquer 53.2 NM
SDWQ NNE 13°
(C) Vincent Faiks 60.6 NM
SMPA SW 218°
4 Castanhal 67.0 NM
SNCB E 81°
(C) Obidos 69.6 NM
SNTI NW 322°
VFR Chart
Flight Planning at SkyVector.com